Location: El Bakhil
(32.7726°N, 5.5387°W)
Time: 01:39:11
(UTC+00:00)

NANOSAT C BR1 - Visible Passes

Search period start: 26 July 2021 00:00
Search period end: 05 August 2021 00:00
Orbit: 587 x 606 km, 98.0° (Epoch: 25 July)

Date Brightness Start Highest point End Pass type
(mag) Time Alt. Az. Time Alt. Az. Time Alt. Az.
26 Jul ? 01:26:57 10° NNE 01:27:52 16° NNE 01:27:52 16° NNE visible
26 Jul ? 03:04:13 10° NW 03:04:32 11° NW 03:04:32 11° NW visible
27 Jul ? 01:36:47 10° NNE 01:37:53 18° NNE 01:37:53 18° NNE visible
28 Jul ? 01:46:41 10° NNE 01:47:55 19° NNE 01:47:55 19° NNE visible
29 Jul ? 01:56:38 10° N 01:57:56 20° N 01:57:56 20° N visible
30 Jul ? 02:06:38 10° N 02:07:57 20° N 02:07:57 20° N visible
31 Jul ? 02:16:42 10° N 02:17:58 19° N 02:17:58 19° N visible
01 Aug ? 02:26:50 10° N 02:27:59 17° NNW 02:27:59 17° NNW visible
02 Aug ? 02:37:01 10° NNW 02:37:59 15° NNW 02:37:59 15° NNW visible
03 Aug ? 02:47:19 10° NNW 02:48:00 13° NNW 02:48:00 13° NNW visible
04 Aug ? 01:21:08 10° NNE 01:21:20 11° NE 01:21:20 11° NE visible
04 Aug ? 02:57:46 10° NNW 02:58:00 11° NW 02:58:00 11° NW visible
